Location: Stoke Bliss
(52.2667°N, 2.5167°W)
Time: 23:07:17
(UTC+00:00)

Cosmos 1503 Rocket - Visible Passes

Search period start: 24 June 2021 00:00
Search period end: 04 July 2021 00:00
Orbit: 752 x 791 km, 74.0° (Epoch: 24 June)

Date Brightness Start Highest point End Pass type
(mag) Time Alt. Az. Time Alt. Az. Time Alt. Az.
24 Jun 4.1 21:46:21 10° NNW 21:51:47 84° WSW 21:57:02 10° SSE visible
24 Jun 6.2 23:30:05 10° WNW 23:33:05 15° W 23:36:04 10° SW visible
25 Jun 5.8 22:53:15 10° NW 22:57:25 23° W 23:01:34 10° SSW visible
26 Jun 5.3 22:16:51 10° NW 22:21:42 35° WSW 22:26:29 10° SSW visible
27 Jun 4.7 21:40:38 10° NNW 21:45:52 53° WSW 21:51:02 10° S visible
28 Jun 6.4 22:48:25 10° WNW 22:51:12 14° W 22:53:59 10° SW visible
29 Jun 6.0 22:11:31 10° NW 22:15:35 22° W 22:19:35 10° SSW visible
30 Jun 5.5 21:35:05 10° NW 21:39:51 33° WSW 21:44:34 10° SSW visible
02 Jul 6.5 22:06:47 10° WNW 22:09:20 14° W 22:11:52 10° WSW visible
03 Jul 6.2 21:29:47 10° NW 21:33:42 21° W 21:37:36 10° SW visible
